[[{"header":{"parameterUnit":"m.s-1","parameterCategory":1,"la1":30.2991,"la2":30.254,"lo1":-89.0895,"lo2":-89.0444,"dy":0.0017,"dx":0.0017,"nx":28,"ny":28,"refTime":"2023-07-20T21:00:00:Z","depth":0,"parameterNumber":2,"parameterNumberName":"U-component_of_WINDS"},"data":[0,0,0,0,0,0,0,0,0,0,0,0,0,0,0,0,0,0,0,0,0,0,0,0,0,0,0,0,0,0,0,0,0,0,0,0,0,0,0,0,0,0,0,0,0,0,0,0,0,0,0,0,0,0,0,0,0,0,0.3189,0.3191,0,0.3349,0.3351,0.3353,0.3427,0.3427,0.3427,0.3427,0.3595,0.36,0.3604,0,0,0,0,0,0,0,0,0,0,0,0,0,0.2952,0.2956,0.3189,0.3191,0.3193,0.3349,0.3351,0.3353,0.3427,0.3427,0.3427,0.3427,0.3594,0.3599,0.3605,0,0,0,0,0,0,0,0,0,0,0,0,0,0.3078,0.2957,0.3189,0.3249,0.3256,0.3348,0.3351,0.3354,0.3427,0.3427,0.3427,0.3427,0.3592,0.3599,0.3606,0.3652,0,0,0.3627,0.363,0,0,0,0,0,0,0,0,0.3071,0.3087,0.3238,0.3245,0.3253,0.3368,0.333,0.3454,0.3427,0.3362,0.3427,0.3427,0.352,0.3533,0.3564,0.366,0.3668,0.3627,0.3632,0.3635,0.3637,0,0,0,0,0,0,0,0.3062,0.308,0.3253,0.324,0.3249,0.3269,0.3287,0.3353,0.3441,0.3368,0.3374,0.3391,0.3524,0.3557,0.3568,0.367,0.3627,0.3633,0.3638,0.364,0.3815,0.3815,0,0,0,0,0,0,0.3043,0.3072,0.3247,0.3257,0.3159,0.3273,0.3293,0.3331,0.344,0.3456,0.3391,0.3394,0.3545,0.356,0.3574,0.3637,0.3635,0.3641,0.3645,0.3814,0.3815,0.3815,0,0,0,0,0,0,0.3037,0.3058,0.3241,0.3167,0.3191,0.3278,0.332,0.3334,0.3367,0.3458,0.3474,0.3408,0.3546,0.3565,0.3632,0.3644,0.3644,0.365,0.3814,0.3814,0.3815,0.3762,0,0,0,0,0,0,0.303,0.3055,0.3073,0.3166,0.3195,0.3295,0.332,0.3338,0.3378,0.3383,0.3478,0.3493,0.3547,0.3622,0.3639,0.3653,0.3656,0.3813,0.3814,0.3815,0.3763,0.3761,0.3759,0,0,0,0,0,0.3022,0.3052,0.3073,0.3094,0.3218,0.3295,0.3312,0.3371,0.3379,0.3398,0.3456,0.349,0.364,0.3628,0.3648,0.3665,0.3813,0.3814,0.3815,0.3764,0.3761,0.3759,0,0,0,0,0,0,0.2959,0.3066,0.309,0.3151,0.3213,0.3307,0.3333,0.3366,0.3429,0.3431,0.3504,0.3525,0.3586,0.3633,0.3618,0.3717,0.3729,0.3735,0.3684,0.3682,0.368,0.3668,0.3662,0,0,0,0,0,0.2952,0.3004,0.3095,0.3141,0.317,0.3246,0.3282,0.3322,0.339,0.3417,0.3481,0.3546,0.3609,0.3648,0.371,0.377,0.3793,0.3792,0.3789,0.3787,0.3791,0.3828,0.3829,0.3819,0.3819,0.3819,0,0,0.2939,0.3004,0.3032,0.313,0.3182,0.3236,0.3268,0.3323,0.3364,0.3426,0.3494,0.3542,0.3621,0.3685,0.3717,0.3726,0.3799,0.3789,0.3786,0.3792,0.3829,0.383,0.3831,0.3819,0.3819,0.3819,0,0,0.2943,0.2996,0.304,0.3092,0.3171,0.3222,0.3232,0.3322,0.3356,0.3424,0.3472,0.3523,0.3628,0.3682,0.3723,0.3748,0.3782,0.3766,0.3755,0.379,0.3791,0.3792,0.3801,0.3804,0.377,0.3769,0.3769,0,0.2917,0.2998,0.3059,0.3112,0.3154,0.3211,0.3257,0.3305,0.3401,0.343,0.3438,0.3571,0.3628,0.3706,0.3712,0.3743,0.3759,0.3756,0.3785,0.3787,0.3789,0.3799,0.3802,0.3767,0.3767,0.3768,0.3768,0,0.2963,0.3018,0.3045,0.3134,0.318,0.3229,0.3299,0.3338,0.3374,0.3424,0.3494,0.3564,0.3642,0.3663,0.37,0.3747,0.3751,0.3771,0.3786,0.3786,0.3797,0.3802,0.3764,0.3764,0.3765,0.3766,0,0,0.2931,0.3054,0.3063,0.3105,0.3196,0.3241,0.3294,0.3368,0.34,0.3465,0.3512,0.3599,0.3619,0.3666,0.3709,0.3739,0.3755,0.3757,0.376,0.3755,0.3813,0.3797,0.3801,0.3778,0.3779,0.378,0.3807,0,0.2948,0.3043,0.31,0.3172,0.3225,0.3281,0.3327,0.3389,0.3437,0.349,0.3545,0.3605,0.3626,0.3655,0.3687,0.3746,0.3768,0.3745,0.3824,0.3826,0.3803,0.3806,0.379,0.3812,0.3811,0.3812,0.3813,0,0.298,0.3042,0.3119,0.3205,0.323,0.327,0.3343,0.3393,0.3465,0.3498,0.355,0.3594,0.3653,0.3662,0.3746,0.3729,0.3765,0.3799,0.3801,0.3812,0.382,0.3817,0.382,0.3823,0.382,0.3819,0.3819,0,0.295,0.3053,0.3113,0.3147,0.3249,0.3276,0.332,0.3392,0.3433,0.3498,0.3525,0.3596,0.3635,0.369,0.3753,0.3753,0.3831,0.3845,0.3861,0.3859,0.3875,0.3874,0.3884,0.3897,0.3897,0.3897,0.3897,0,0.2964,0.3009,0.3101,0.3138,0.3191,0.3256,0.3307,0.3356,0.342,0.3468,0.3521,0.3566,0.3645,0.37,0.3749,0.3812,0.3829,0.3858,0.3871,0.3854,0.385,0.3879,0.3879,0.3898,0.3898,0.3897,0.3897,0,0.2939,0.3003,0.3072,0.3162,0.3186,0.3221,0.33,0.3339,0.3389,0.345,0.3468,0.3549,0.3616,0.3683,0.3775,0.3808,0.387,0.3887,0.3845,0.3852,0.3865,0.3863,0.3895,0.3903,0.3909,0.3909,0.3909,0,0.2944,0.298,0.3074,0.311,0.3152,0.3209,0.3251,0.3317,0.3359,0.3445,0.3473,0.3544,0.3605,0.371,0.3778,0.3849,0.3868,0.3874,0.3879,0.3861,0.3869,0.3866,0.3871,0.3872,0.3872,0.3872,0.3871,0,0.2945,0.2975,0.3033,0.3102,0.315,0.3208,0.3268,0.3295,0.3373,0.3418,0.3487,0.3534,0.3627,0.3697,0.3775,0.3823,0.3861,0.3869,0.3877,0.386,0.3835,0.3849,0.384,0.3868,0.3869,0.3869,0.3869,0.3869,0.2937,0.2971,0.3043,0.3106,0.3158,0.3213,0.3254,0.3309,0.3367,0.3447,0.3483,0.3553,0.3626,0.3734,0.3781,0.3838,0.3848,0.3859,0.3862,0.3863,0.386,0.3825,0.3852,0.3853,0.3853,0.3853,0.3853,0,0.2941,0.299,0.3047,0.3129,0.3179,0.3208,0.3277,0.3317,0.3377,0.3441,0.3499,0.3579,0.3647,0.372,0.3794,0.3825,0.3844,0.3842,0.3841,0.3851,0.3846,0.3833,0.3825,0.3825,0.3825,0.3825,0.3825,0.3825,0.295,0.301,0.3048,0.3136,0.3185,0.3252,0.3289,0.334,0.3392,0.3478,0.3535,0.3581,0.3649,0.3728,0.3793,0.3813,0.3838,0.3831,0.3856,0.385,0.3852,0.3853,0.3841,0.3835,0.3835,0.3856,0.3856,0.3856]},{"header":{"parameterUnit":"m.s-1","parameterCategory":1,"la1":30.2991,"la2":30.254,"lo1":-89.0895,"lo2":-89.0444,"dy":0.0017,"dx":0.0017,"nx":28,"ny":28,"refTime":"2023-07-20T21:00:00:Z","depth":0,"parameterNumber":3,"parameterNumberName":"V-component_of_WINDS"},"data":[0,0,0,0,0,0,0,0,0,0,0,0,0,0,0,0,0,0,0,0,0,0,0,0,0,0,0,0,0,0,0,0,0,0,0,0,0,0,0,0,0,0,0,0,0,0,0,0,0,0,0,0,0,0,0,0,0,0,1.8518,1.8518,0,1.8554,1.8555,1.8555,1.8575,1.8575,1.8575,1.8576,1.861,1.8611,1.8612,0,0,0,0,0,0,0,0,0,0,0,0,0,1.8462,1.8463,1.8518,1.8518,1.8519,1.8554,1.8555,1.8555,1.8575,1.8575,1.8576,1.8576,1.861,1.8611,1.8612,0,0,0,0,0,0,0,0,0,0,0,0,0,1.8491,1.8463,1.8518,1.8533,1.8535,1.8554,1.8555,1.8555,1.8575,1.8575,1.8576,1.8576,1.861,1.8611,1.8612,1.8618,0,0,1.8616,1.8617,0,0,0,0,0,0,0,0,1.8489,1.8493,1.8531,1.8532,1.8534,1.856,1.8548,1.8576,1.8575,1.856,1.8576,1.8576,1.8593,1.8596,1.8603,1.862,1.8621,1.8616,1.8617,1.8618,1.8618,0,0,0,0,0,0,0,1.8487,1.8491,1.8532,1.8531,1.8533,1.8537,1.8541,1.8553,1.8576,1.8561,1.8563,1.8567,1.8594,1.8601,1.8604,1.8622,1.8616,1.8617,1.8618,1.8619,1.8641,1.8641,0,0,0,0,0,0,1.8483,1.849,1.8531,1.8533,1.8512,1.8538,1.8543,1.8552,1.8576,1.8579,1.8567,1.8568,1.8599,1.8602,1.8605,1.8611,1.8618,1.8619,1.862,1.8641,1.8641,1.8641,0,0,0,0,0,0,1.8482,1.8487,1.853,1.8512,1.8518,1.8539,1.8549,1.8552,1.8559,1.858,1.8584,1.857,1.8599,1.8603,1.8614,1.8612,1.8619,1.8621,1.8641,1.8641,1.8641,1.8624,0,0,0,0,0,0,1.848,1.8486,1.849,1.8512,1.8519,1.854,1.8549,1.8553,1.8562,1.8563,1.8584,1.8587,1.86,1.8612,1.8615,1.8614,1.8622,1.8642,1.8641,1.8641,1.8625,1.8623,1.8622,0,0,0,0,0,1.8478,1.8484,1.849,1.8495,1.8524,1.8539,1.8543,1.8558,1.8562,1.8565,1.8577,1.8587,1.8612,1.8613,1.8617,1.8616,1.8642,1.8641,1.8641,1.8626,1.8624,1.8622,0,0,0,0,0,0,1.8462,1.8487,1.8494,1.8508,1.8521,1.8543,1.8547,1.8556,1.8568,1.8569,1.8586,1.8591,1.8599,1.8609,1.8609,1.8621,1.8628,1.8628,1.8614,1.8613,1.8611,1.8609,1.8623,0,0,0,0,0,1.846,1.8471,1.8493,1.8502,1.8509,1.8527,1.8534,1.8544,1.8558,1.8564,1.8578,1.859,1.86,1.8607,1.8618,1.8626,1.8629,1.8627,1.8626,1.8624,1.8624,1.8626,1.8624,1.864,1.864,1.864,0,0,1.8456,1.8471,1.8478,1.8499,1.8511,1.8521,1.8531,1.8542,1.8549,1.8566,1.8576,1.8586,1.8601,1.8609,1.8614,1.8618,1.8621,1.8624,1.8623,1.8623,1.8625,1.8624,1.8622,1.8639,1.8639,1.8639,0,0,1.8453,1.8467,1.8475,1.8486,1.8503,1.8514,1.8516,1.8536,1.8543,1.8554,1.8565,1.8573,1.8591,1.86,1.8608,1.8604,1.8612,1.8607,1.8599,1.86,1.8599,1.8598,1.8595,1.8593,1.8607,1.8607,1.8607,0,1.8446,1.8463,1.8478,1.8487,1.8495,1.851,1.8517,1.8526,1.8546,1.855,1.8554,1.8576,1.8587,1.8596,1.8595,1.8601,1.8601,1.8605,1.8598,1.8597,1.8597,1.8593,1.8592,1.8606,1.8606,1.8606,1.8606,0,1.8451,1.8462,1.8467,1.8484,1.8493,1.8501,1.8516,1.8522,1.853,1.854,1.8549,1.8562,1.8575,1.8578,1.8587,1.8587,1.8589,1.8595,1.8602,1.8594,1.8591,1.859,1.8605,1.8605,1.8605,1.8606,0,0,1.8442,1.8466,1.8467,1.8474,1.8492,1.85,1.8507,1.8519,1.8523,1.8535,1.8539,1.8553,1.8558,1.8566,1.8575,1.8577,1.8569,1.8583,1.8583,1.8578,1.8568,1.8562,1.856,1.8575,1.8575,1.8575,1.8566,0,1.8441,1.8456,1.8468,1.8477,1.8485,1.8498,1.8503,1.8514,1.8522,1.8529,1.8538,1.8547,1.8554,1.8559,1.856,1.857,1.8567,1.8571,1.8577,1.8578,1.8572,1.8559,1.8554,1.8545,1.8565,1.8565,1.8565,0,1.8443,1.8453,1.8463,1.8477,1.8481,1.8486,1.8496,1.8503,1.8514,1.852,1.8527,1.8536,1.8541,1.8547,1.8553,1.8555,1.8558,1.8563,1.8563,1.8564,1.857,1.8558,1.8543,1.854,1.8563,1.8563,1.8564,0,1.8432,1.8449,1.8456,1.8461,1.8478,1.8481,1.8488,1.8499,1.8504,1.8512,1.8515,1.8524,1.8529,1.8534,1.8544,1.8548,1.8548,1.8556,1.8552,1.8551,1.8551,1.8551,1.8535,1.8555,1.8555,1.8555,1.8555,0,1.843,1.8435,1.8451,1.8455,1.846,1.8473,1.8476,1.8484,1.8493,1.8497,1.8508,1.8512,1.8526,1.853,1.8538,1.854,1.8543,1.8546,1.8548,1.8544,1.8544,1.8546,1.8546,1.8555,1.8555,1.8555,1.8555,0,1.8419,1.8431,1.8439,1.8453,1.8456,1.8459,1.847,1.8474,1.8482,1.8487,1.8489,1.8501,1.8506,1.8517,1.8526,1.853,1.853,1.8534,1.8527,1.8527,1.8522,1.8521,1.8506,1.8503,1.8526,1.8526,1.8526,0,1.8417,1.842,1.8434,1.8438,1.8444,1.845,1.8455,1.8466,1.847,1.848,1.8482,1.8488,1.8493,1.8501,1.851,1.8515,1.8519,1.8513,1.852,1.8515,1.8516,1.8515,1.8514,1.8511,1.8511,1.8511,1.851,0,1.8409,1.8414,1.8421,1.8428,1.8433,1.844,1.8447,1.8449,1.8462,1.8465,1.8471,1.8475,1.8482,1.8487,1.8493,1.8499,1.8505,1.8508,1.8507,1.8503,1.8497,1.8498,1.8521,1.8508,1.8508,1.8509,1.8509,1.8509,1.8402,1.8404,1.8413,1.8419,1.8425,1.8431,1.8434,1.8441,1.8446,1.8453,1.8459,1.8463,1.8469,1.8478,1.8483,1.8485,1.8489,1.8488,1.8487,1.8486,1.8484,1.8498,1.8486,1.8486,1.8486,1.8486,1.8486,0,1.8394,1.8399,1.8405,1.8413,1.8417,1.8423,1.843,1.8432,1.8436,1.8442,1.8446,1.845,1.8454,1.8462,1.8466,1.8466,1.8468,1.8466,1.8466,1.8466,1.8481,1.8481,1.8463,1.8463,1.8463,1.8463,1.8463,1.8463,1.839,1.8393,1.8398,1.8403,1.8409,1.8413,1.8416,1.842,1.8424,1.8428,1.8431,1.8436,1.8442,1.8446,1.8448,1.845,1.845,1.8447,1.8449,1.8463,1.8465,1.8468,1.8467,1.8447,1.8447,1.8434,1.8434,1.8433]}]]